Weather Roundup
Issued by NWS Chicago, IL

Home | Current Version | Previous Version | Text Only | Print | Product List | Glossary On
Versions: 1 2 3 4 5 6 7 8 9 10 11 12 13 14 15 16 17 18 19 20 21 22 23 24 25 26 27 28 29 30 31 32 33 34 35 36 37 38 39 40 41 42 43 44 45 46 47 48 49 50
000
NZUS59 KLOT 280409
HRRLOT

CHICAGO AREA WEATHER ROUNDUP
NATIONAL WEATHER SERVICE CHICAGO/ROMEOVILLE IL
1100 PM CDT TUE JUN 27 2017

NOTE: "FAIR" INDICATES FEW OR NO CLOUDS BELOW 12,000 FEET WITH NO
SIGNIFICANT WEATHER AND/OR OBSTRUCTIONS TO VISIBILITY.

* THESE STATIONS ARE NOT UNDER NWS QUALITY CONTROL. THEY ALSO MAY NOT
  REPORT WEATHER SUCH AS PRECIPITATION OR FOG.

ILZ005-006-012>014-019>023-280500-
NORTHEAST ILLINOIS

CITY           SKY/WX    TMP DP  RH WIND       PRES   REMARKS
OHARE          PTCLDY    67  45  45 S9        30.03S
MIDWAY         PTCLDY    69  46  43 S6        30.04S
AURORA         PTCLDY    61  48  62 S6        30.04S
LANSING*       CLEAR     59  46  61 S6        30.05S
JOLIET*        CLEAR     59  52  78 CALM      30.05S
WAUKEGAN       CLEAR     58  53  84 CALM      30.02S
DUPAGE AIRPORT PTCLDY    60  49  66 S6        30.03S
WHEELING       CLEAR     61  51  70 SE3       30.04S
MORRIS*        PTCLDY    62  49  62 S3        30.03S
LEWIS AIRPORT* PTCLDY    60  46  59 S6        30.04S
$$

WIZ051-052-058>065-066-070>072-280500-
SOUTHEAST WISCONSIN

CITY           SKY/WX    TMP DP  RH WIND       PRES   REMARKS
MILWAUKEE      PTCLDY    65  49  56 S9        30.01S
KENOSHA*       PTCLDY    61  50  67 S6        30.02S
RACINE*        PTCLDY    64  48  56 S9        30.04R
WAUKESHA       PTCLDY    59  46  63 S5        30.03R
WEST BEND      PTCLDY    54  50  87 CALM      30.01R
$$

INZ001>003-010>013-019-020-280500-
NORTHWEST INDIANA

CITY           SKY/WX    TMP DP  RH WIND       PRES   REMARKS
GARY*          CLEAR     60  48  65 S3        30.06S
MICHIGAN CITY* NOT AVBL
RENSSELAER*    NOT AVBL
VALPARAISO     CLOUDY    61  51  70 CALM      30.07S
$$

LMZ740>746-280500-
SOUTHERN LAKE MICHIGAN

STATION/POSITION TIME  SKY/WX   TEMP WIND        PRES    VSBY
                                AIR  DIR/SP/G
                 (UTC)          (F)  (DEG/KT/KT) (MB)    (MI)
HARRISON CRIB    0340            69  200/  9/  9   N/A
BURNHAM HARBOR   0400            69                N/A
CALUMET HARBOR   0348            68  160/  6/  8 1016.9S
BURNS HARBOR     0340            67  180/  7/  9 1017.9S
MICHIGAN CITY    0340            65  140/  8/  9   N/A
$$

ABBREVIATIONS USED IN REMARKS
   TC - TEMPERATURE IN CELSIUS
  WCI - WIND CHILL INDEX
   HX - HEAT INDEX
  VSB - VISIBILITY
$$



USA.gov is the U.S. government's official web portal to all federal, state and local government web resources and services.